When you browse on this site, cookies collect data to enhance your experience and personalize the content and advertising you see.
Visit our Privacy Policy to learn more. By continuing to use the site, you agree to this use of cookies and data.
  • In Romania
  • List of Countries
  • For 7 days
  • Water Temperature
  • Weather Map
  • Weather Widgets
  • user-avatar
    Login

    Hourly Weather Jutiapa

    Today, 10 December, Tuesday

    Time Temperature Precipitation Wind Pressure Humidity
    00:00 +19°C° 0 mm 1 mps 672 mmHg 88%
    01:00 +19°C° 0 mm 1 mps 672 mmHg 89%
    02:00 +19°C° 0 mm 1 mps 672 mmHg 89%
    03:00 +19°C° 0 mm 1 mps 671 mmHg 90%
    04:00 +19°C° 0 mm 1 mps 672 mmHg 89%
    05:00 +18°C° 0 mm 1 mps 672 mmHg 89%
    06:00 +18°C° 0 mm 1 mps 672 mmHg 88%
    07:00 +21°C° 0 mm 1 mps 673 mmHg 80%
    08:00 +23°C° 0 mm 1 mps 674 mmHg 72%
    09:00 +25°C° 0 mm 1 mps 675 mmHg 63%
    10:00 +27°C° 0 mm 1 mps 675 mmHg 58%
    11:00 +28°C° 0 mm 1 mps 675 mmHg 53%
    12:00 +30°C° 0 mm 1 mps 674 mmHg 48%
    13:00 +30°C° 0.1 mm 1 mps 674 mmHg 48%
    14:00 +29°C° 0.1 mm 2 mps 673 mmHg 48%
    15:00 +29°C° 0.1 mm 2 mps 673 mmHg 48%
    16:00 +27°C° 0.1 mm 1 mps 673 mmHg 60%
    17:00 +24°C° 0.1 mm 1 mps 672 mmHg 73%
    18:00 +20°C° 0.1 mm 0 mps 672 mmHg 85%
    19:00 +21°C° 0 mm 1 mps 672 mmHg 86%
    20:00 +21°C° 0 mm 1 mps 673 mmHg 87%
    21:00 +20°C° 0 mm 1 mps 673 mmHg 88%
    22:00 +20°C° 0 mm 1 mps 673 mmHg 89%
    23:00 +20°C° 0 mm 1 mps 673 mmHg 90%

    Tomorrow, 11 December, Wednesday

    Time Temperature Precipitation Wind Pressure Humidity
    00:00 +18°C° 0 mm 2 mps 672 mmHg 91%
    01:00 +18°C° 0 mm 2 mps 672 mmHg 92%
    02:00 +18°C° 0 mm 2 mps 672 mmHg 93%
    03:00 +18°C° 0 mm 2 mps 672 mmHg 94%
    04:00 +17°C° 0 mm 2 mps 672 mmHg 94%
    05:00 +17°C° 0 mm 2 mps 672 mmHg 95%
    06:00 +17°C° 0 mm 2 mps 673 mmHg 95%
    07:00 +19°C° 0 mm 2 mps 674 mmHg 86%
    08:00 +21°C° 0 mm 2 mps 675 mmHg 76%
    09:00 +24°C° 0 mm 3 mps 676 mmHg 66%
    10:00 +26°C° 0 mm 3 mps 675 mmHg 61%
    11:00 +27°C° 0 mm 3 mps 675 mmHg 56%
    12:00 +29°C° 0 mm 4 mps 675 mmHg 50%
    13:00 +29°C° 0 mm 4 mps 675 mmHg 50%
    14:00 +29°C° 0 mm 4 mps 674 mmHg 49%
    15:00 +28°C° 0 mm 4 mps 674 mmHg 48%
    16:00 +26°C° 0 mm 3 mps 673 mmHg 57%
    17:00 +24°C° 0 mm 3 mps 673 mmHg 66%
    18:00 +21°C° 0 mm 2 mps 673 mmHg 75%
    19:00 +20°C° 0 mm 2 mps 673 mmHg 79%
    20:00 +19°C° 0 mm 2 mps 674 mmHg 83%
    21:00 +19°C° 0 mm 3 mps 674 mmHg 86%
    22:00 +18°C° 0 mm 3 mps 674 mmHg 87%
    23:00 +18°C° 0 mm 2 mps 674 mmHg 88%

    Day after tomorrow, 12 December, Thursday

    Time Temperature Precipitation Wind Pressure Humidity
    00:00 +18°C° 0 mm 2 mps 673 mmHg 89%
    01:00 +17°C° 0 mm 2 mps 673 mmHg 88%
    02:00 +17°C° 0 mm 3 mps 673 mmHg 87%
    03:00 +17°C° 0 mm 3 mps 672 mmHg 87%
    04:00 +17°C° 0 mm 3 mps 673 mmHg 86%
    05:00 +17°C° 0 mm 3 mps 673 mmHg 85%
    06:00 +17°C° 0 mm 3 mps 673 mmHg 84%
    07:00 +19°C° 0 mm 3 mps 674 mmHg 76%
    08:00 +21°C° 0 mm 3 mps 675 mmHg 68%
    09:00 +23°C° 0 mm 4 mps 675 mmHg 60%
    10:00 +25°C° 0 mm 4 mps 675 mmHg 56%
    11:00 +26°C° 0 mm 4 mps 675 mmHg 53%
    12:00 +28°C° 0 mm 4 mps 675 mmHg 49%
    13:00 +28°C° 0 mm 4 mps 674 mmHg 50%
    14:00 +28°C° 0 mm 4 mps 674 mmHg 50%
    15:00 +28°C° 0 mm 4 mps 673 mmHg 51%
    16:00 +25°C° 0 mm 3 mps 673 mmHg 59%
    17:00 +22°C° 0 mm 3 mps 672 mmHg 66%
    18:00 +20°C° 0 mm 2 mps 672 mmHg 74%
    19:00 +20°C° 0 mm 2 mps 672 mmHg 78%
    20:00 +19°C° 0 mm 2 mps 673 mmHg 82%
    21:00 +18°C° 0 mm 2 mps 673 mmHg 86%
    22:00 +18°C° 0 mm 2 mps 673 mmHg 87%
    23:00 +17°C° 0 mm 2 mps 673 mmHg 89%

    13 December, Friday

    Time Temperature Precipitation Wind Pressure Humidity
    00:00 +17°C° 0 mm 2 mps 672 mmHg 91%
    01:00 +17°C° 0 mm 2 mps 672 mmHg 91%
    02:00 +16°C° 0 mm 2 mps 672 mmHg 92%
    03:00 +16°C° 0 mm 2 mps 671 mmHg 93%
    04:00 +16°C° 0 mm 2 mps 671 mmHg 93%
    05:00 +16°C° 0 mm 2 mps 671 mmHg 93%
    06:00 +16°C° 0 mm 2 mps 671 mmHg 92%
    07:00 +18°C° 0 mm 2 mps 672 mmHg 82%
    08:00 +20°C° 0 mm 2 mps 673 mmHg 73%
    09:00 +23°C° 0 mm 2 mps 674 mmHg 63%
    10:00 +25°C° 0 mm 2 mps 674 mmHg 57%
    11:00 +26°C° 0 mm 3 mps 674 mmHg 51%
    12:00 +28°C° 0 mm 3 mps 673 mmHg 45%
    13:00 +28°C° 0 mm 3 mps 673 mmHg 45%
    14:00 +28°C° 0 mm 3 mps 672 mmHg 46%
    15:00 +28°C° 0 mm 3 mps 672 mmHg 47%
    16:00 +25°C° 0 mm 2 mps 671 mmHg 57%
    17:00 +23°C° 0 mm 1 mps 671 mmHg 68%
    18:00 +20°C° 0 mm 1 mps 671 mmHg 78%
    19:00 +20°C° 0 mm 1 mps 671 mmHg 81%
    20:00 +19°C° 0 mm 1 mps 672 mmHg 83%
    21:00 +19°C° 0 mm 1 mps 672 mmHg 86%
    22:00 +17°C° 0 mm 2 mps 672 mmHg 87%
    23:00 +17°C° 0 mm 2 mps 671 mmHg 88%

    14 December, Saturday

    Time Temperature Precipitation Wind Pressure Humidity
    00:00 +17°C° 0 mm 2 mps 671 mmHg 89%
    01:00 +17°C° 0 mm 2 mps 671 mmHg 90%
    02:00 +16°C° 0 mm 2 mps 670 mmHg 90%
    03:00 +16°C° 0 mm 2 mps 670 mmHg 91%
    04:00 +16°C° 0 mm 2 mps 670 mmHg 91%
    05:00 +16°C° 0 mm 2 mps 671 mmHg 91%
    06:00 +16°C° 0 mm 2 mps 671 mmHg 91%
    07:00 +18°C° 0 mm 2 mps 672 mmHg 81%
    08:00 +21°C° 0 mm 2 mps 673 mmHg 71%
    09:00 +24°C° 0 mm 2 mps 673 mmHg 62%
    10:00 +25°C° 0 mm 2 mps 673 mmHg 57%
    11:00 +27°C° 0 mm 2 mps 673 mmHg 52%
    12:00 +28°C° 0 mm 2 mps 673 mmHg 47%
    13:00 +28°C° 0 mm 2 mps 672 mmHg 49%
    14:00 +28°C° 0 mm 2 mps 672 mmHg 50%
    15:00 +28°C° 0 mm 2 mps 671 mmHg 52%
    16:00 +25°C° 0 mm 2 mps 671 mmHg 62%
    17:00 +23°C° 0 mm 1 mps 671 mmHg 73%
    18:00 +19°C° 0 mm 0 mps 670 mmHg 84%
    19:00 +20°C° 0 mm 1 mps 671 mmHg 85%
    20:00 +20°C° 0 mm 1 mps 671 mmHg 87%
    21:00 +19°C° 0 mm 1 mps 672 mmHg 88%
    22:00 +19°C° 0 mm 1 mps 671 mmHg 89%
    23:00 +19°C° 0 mm 1 mps 671 mmHg 90%

    15 December, Sunday

    Time Temperature Precipitation Wind Pressure Humidity
    00:00 +18°C° 0 mm 1 mps 671 mmHg 91%
    01:00 +18°C° 0 mm 1 mps 671 mmHg 91%
    02:00 +18°C° 0 mm 1 mps 671 mmHg 91%
    03:00 +18°C° 0 mm 1 mps 670 mmHg 91%
    04:00 +18°C° 0 mm 1 mps 670 mmHg 90%
    05:00 +16°C° 0 mm 1 mps 671 mmHg 90%
    06:00 +16°C° 0 mm 1 mps 671 mmHg 90%
    07:00 +20°C° 0 mm 1 mps 672 mmHg 80%
    08:00 +23°C° 0 mm 1 mps 673 mmHg 70%
    09:00 +25°C° 0 mm 1 mps 674 mmHg 61%
    10:00 +27°C° 0 mm 1 mps 674 mmHg 56%
    11:00 +28°C° 0 mm 1 mps 674 mmHg 52%
    12:00 +30°C° 0 mm 1 mps 674 mmHg 47%
    13:00 +29°C° 0.3 mm 1 mps 673 mmHg 51%
    14:00 +28°C° 0.3 mm 2 mps 672 mmHg 55%
    15:00 +27°C° 0.3 mm 2 mps 672 mmHg 59%
    16:00 +25°C° 0.4 mm 1 mps 671 mmHg 69%
    17:00 +23°C° 0.4 mm 1 mps 671 mmHg 80%
    18:00 +21°C° 0.4 mm 1 mps 671 mmHg 90%
    19:00 +20°C° 0.1 mm 1 mps 671 mmHg 91%
    20:00 +20°C° 0.1 mm 1 mps 672 mmHg 93%
    21:00 +19°C° 0.1 mm 1 mps 672 mmHg 94%
    22:00 +19°C° 0 mm 1 mps 672 mmHg 94%
    23:00 +19°C° 0 mm 1 mps 672 mmHg 94%
    Show more